Starlink 6053

operational
NORAD ID: 56466 Int'l Des: 2023-064 Owner: SPXS Country: US Constellation: starlink
LEOCIRCULAR

About Starlink 6053

Description loading...

Live Position

Loading 3D Globe...

Upcoming Passes

Altitude History

Altitude vs Time

uPlot chart will show altitude changes over time

Two-Line Element Set

1 56466U 23064U 26033.80344440 -.00051336 00000-0 -43751-2 0 9995
2 56466 69.9979 232.2852 0001386 341.3398 18.7709 14.97898541150027
Epoch: Feb 2, 2026 • Age: 53 hours

Current Status

Altitude 581.4 km
Velocity 7.58 km/s
Sub-Earth Point 50.91°N, 111.66°E
Launch Date May 10, 2023
Age 2.7 years
Type internet

Technical Details

Classification Payload
Mass 305.00 kg
Dry Mass 290.00 kg
Total Mass 305.00 kg
Length 0.20 m
Diameter 2.80 m
Span 9.00 m
Shape Box + pan
Manufacturer SPXS
Bus Type Starlink
Phase Status In Orbit
Owner/State SPXS/US

Large Constellations

Loading constellations...